Regional Weather Roundup
Issued by NWS Kansas City/Pleasant Hill, MO

Home | Current Version | Previous Version | Graphics & Text | Print | Product List | Glossary Off
Versions: 1 2 3 4 5 6 7 8 9 10 11 12 13 14 15 16 17 18 19 20 21 22 23 24 25 26 27 28 29 30 31 32 33 34 35 36 37 38 39 40 41 42 43 44 45 46 47 48 49

395
ASUS43 KEAX 080710
RWREAX

WEATHER ROUNDUP FOR EASTERN KANSAS AND NORTHWEST MISSOURI
NATIONAL WEATHER SERVICE KANSAS CITY/PLEASANT HILL MO
100 AM CST MON FEB 08 2016

KSZ040-057-103>105-MOZ028-029-037-043-080800-
...KANSAS CITY METROPOLITAN AREA...

CITY           SKY/WX    TMP DP  RH WIND       PRES   REMARKS
K.C. INTL      CLOUDY    36  21  54 NW31G43   29.98S WCI  23
K.C. DOWNTOWN  CLOUDY    38  23  55 NW20G33   29.99F WCI  28
LEES SUMMIT    CLOUDY    37  25  61 NW18G30   29.98F WCI  27
OLATHE - IXD   LGT SNOW  33  27  78 NW35G45   30.03S WCI  18
OLATHE - OJC   FLURRIES  36  25  64 NW20G36   30.00F WCI  25
LAWRENCE       MOCLDY    34  24  67 N23G29    30.05R WCI  22

$$

MOZ001>008-011>017-020>025-030>033-038>040-044>046-053-054-080800-
...NORTHERN AND CENTRAL MISSOURI...

CITY           SKY/WX    TMP DP  RH WIND       PRES   REMARKS
ST. JOSEPH     CLOUDY    34  22  61 NW38G52   30.00R WCI  19
MOSBY          CLOUDY    36  27  69 NW23G29   29.97S WCI  24
WARRENSBURG    CLOUDY    36  25  64 W21G30    29.97F WCI  24
WHITEMAN AFB   CLOUDY    36  27  69 NW18G25   29.94F WCI  25
CLINTON          N/A     37  27  65 NW18G25   29.99F WCI  27
SEDALIA        CLOUDY    37  24  59 NW18G31   29.95S WCI  27
WARSAW         NOT AVBL
CHILLICOTHE      N/A     35  23  61 NW14G24   29.93F WCI  26
KIRKSVILLE     CLOUDY    32  20  61 NW15G24   29.84S WCI  22

$$

MOZ041-047>049-056>058-063>065-088>090-097-080800-
...EASTERN AND SOUTHERN MISSOURI...

CITY           SKY/WX    TMP DP  RH WIND       PRES   REMARKS
ST. LOUIS INTL LGT RAIN  40  29  64 W20G25    29.83F WCI  30
SPIRIT OF STL  CLOUDY    38  30  73 W17G24    29.84S WCI  28
COLUMBIA       CLOUDY    33  31  92 W15       29.88F WCI  23
JEFFERSON CITY FLURRIES  37  29  72 NW22G35   29.90F WCI  26
ROLLA          CLOUDY    36  26  67 W20       29.86F WCI  25
OSAGE BEACH    CLOUDY    37  23  56 W12G23    29.93F WCI  30
SPRINGFIELD    CLOUDY    39  22  50 NW10      29.99F WCI  32
BRANSON        MOCLDY    37  19  48 NW7       30.02F WCI  32
JOPLIN         CLEAR     37  21  52 W15       30.07F WCI  28
WEST PLAINS    CLEAR     39  18  42 NW15G28   29.93F WCI  31

$$

IAZ060-094-KSZ022-034>040-054-083-096-NEZ052-066-093-080800-
...KANSAS...SOUTHEAST NEBRASKA AND IOWA...

CITY           SKY/WX    TMP DP  RH WIND       PRES   REMARKS
TOPEKA         CLOUDY    38  20  48 NW15G24   30.07R WCI  29
MANHATTAN      PTCLDY    36  18  48 NW10G21   30.14S WCI  28
EMPORIA        CLEAR     36  18  48 NW18G32   30.10F WCI  26
CHANUTE        CLEAR     36  21  54 NW13      30.10S WCI  27
WICHITA        CLEAR     38  18  44 NW23G31   30.20S WCI  27
OMAHA          CLOUDY    31  22  69 NW25G32   29.98F WCI  17
LINCOLN        CLOUDY    34  20  56 NW16G28   30.06F WCI  24
FALLS CITY     CLOUDY    35  24  64 NW21G30   30.02F WCI  24
LAMONI         CLOUDY    28  19  69 NW23G33   29.89S WCI  14
DES MOINES     FLURRIES  26  19  74 NW20G35   29.87R WCI  12

$$





USA.gov is the U.S. government's official web portal to all federal, state and local government web resources and services.